Regional Weather Roundup
Issued by NWS Green Bay, WI

Home | Current Version | Previous Version | Text Only | Print | Product List | Glossary On
Versions: 1 2 3 4 5 6 7 8 9 10 11 12 13 14 15 16 17 18 19 20 21 22 23 24 25 26 27 28 29 30 31 32 33 34 35 36 37 38 39 40 41 42 43 44 45 46 47 48 49 50
000
ASUS43 KGRB 220659
RWRGRB

NORTH-CENTRAL AND NORTHEAST WISCONSIN REGIONAL WEATHER ROUNDUP
NATIONAL WEATHER SERVICE GREEN BAY WI
200 AM CDT FRI AUG 22 2014

WIZ005-009-010>012-018-019-220800-
NORTH CENTRAL WISCONSIN

CITY           SKY/WX    TMP DP  RH WIND       PRES   REMARKS
IRONWOOD       CLOUDY    66  66 100 E7        29.89F
MANITOWISH WTR NOT AVBL
ARBOR VITAE    NOT AVBL
EAGLE RIVER    NOT AVBL
LAND O LAKES   NOT AVBL
RHINELANDER    CLOUDY    63  62  97 SE6       29.95F FOG
PHILLIPS       CLOUDY    65  65  99 E5        29.92F FOG
ANTIGO         NOT AVBL
TOMAHAWK       NOT AVBL
MERRILL        NOT AVBL
$$

WIZ013-073-220800-
NORTHEAST WISCONSIN

CITY           SKY/WX    TMP DP  RH WIND       PRES   REMARKS
IRON MOUNTAIN  CLOUDY    63  61  93 SE8       29.95F
MARINETTE      CLOUDY    66  63  88 E5        29.93F
$$

WIZ017-030-035>037-045-220800-
CENTRAL WISCONSIN

CITY           SKY/WX    TMP DP  RH WIND       PRES   REMARKS
MEDFORD        NOT AVBL
WAUSAU         FOG       65  65 100 E5        29.91F VSB 1/2
MOSINEE        NOT AVBL
MARSHFIELD     CLOUDY    71  69  93 E9        29.91F FOG
WISC RAPIDS    CLOUDY    71  69  93 E6        29.92F
STEVENS POINT  NOT AVBL
WAUPACA        NOT AVBL
SHAWANO        CLOUDY    67  65  90 CALM      29.93F FOG
CLINTONVILLE   NOT AVBL
$$

WIZ038-039-048-051-220800-
FOX VALLEY

CITY           SKY/WX    TMP DP  RH WIND       PRES   REMARKS
NWS GREEN BAY  CLOUDY    66  65  96 NE3       29.92F
APPLETON       NOT AVBL
OSHKOSH        CLOUDY    71  70  96 E3        29.92S FOG
FOND DU LAC    CLOUDY    70  68  93 SE6       29.91F FOG
$$

WIZ022-050-052-220800-
EAST CENTRAL WISCONSIN

CITY           SKY/WX    TMP DP  RH WIND       PRES   REMARKS
STURGEON BAY   CLOUDY    64  63  94 SE6       29.94F
MANITOWOC      NOT AVBL
SHEBOYGAN      FOG       67  66  97 CALM      29.92F VSB 1/2
$$

LMZ563-521-522-541>543-220800-
LAKESHORE

STATION/POSITION TIME  TEMP    WIND        PRES    VSBY  WAVE
                       AIR SEA DIR/SP/G                  HT/PER
                 (UTC) (F)     (DEG/KT/KT) (MB)    (MI)  (FT/S)
SHEBOYGAN LKSHOR 0600   66 64  150/  5/  5 1013.9F
KEWAUNEE LKSHORE 0600   66     130/  1/  3 1013.0F
NORTHPORT PIER   0600   66     150/  1/  3 1014.6F
N MID LAKE BUOY  0600   65 65   60/  6/  6 1014.3R         0
S GREEN BAY BUOY 0600   67     VRB  4      1014.7F
CHAMBERS ISLAND  0600   67     100/  3/  4 1014.6F
MENOMINEE LKSHOR 0600   68     100/  5/  6 1014.5F
$$



USA.gov is the U.S. government's official web portal to all federal, state and local government web resources and services.